Wetbulb
75.69 74.88 73.25 69.71 59.91 58.39 53.86 57.24 60.95 59.25 60.53 64.82 65.60 62.91 61.55 62.42 59.78 54.58 67.36 70.26 70.83 71.21 72.64 73.62 76.02 76.99 77.80 77.82 77.82 77.72 77.36 77.42 77.51 77.24 77.20 76.91 77.01 76.99 76.86 76.70 76.69 76.42 76.37 76.32 76.03 75.71 75.11 75.35 75.27
74.79 71.49 68.98 62.53 56.42 52.20 54.03 60.01 58.50 61.49 64.06 65.44 65.66 64.42 62.54 61.16 65.63 65.34 67.42 70.54 71.22 71.70 72.52 73.56 76.27 77.12 77.60 77.59 77.84 77.83 77.62 77.61 77.24 77.13 77.14 77.04 77.16 76.90 76.74 76.72 76.34 76.20 76.07 75.77 75.97 76.31 75.87 75.41 75.19
72.13 71.77 64.94 60.28 55.10 52.55 53.78 59.42 61.16 63.77 65.98 64.81 63.70 65.56 63.75 62.73 65.96 66.48 69.36 70.94 71.20 71.67 72.48 74.05 76.77 77.68 77.34 77.41 77.78 78.24 78.44 77.47 77.25 77.12 76.99 77.02 76.76 76.63 76.62 76.37 76.15 76.10 75.99 75.91 75.93 75.77 75.74 75.27 75.41
68.08 67.33 64.81 59.06 55.31 57.97 58.70 61.38 63.29 63.12 65.13 65.22 64.42 61.48 65.88 68.37 67.18 69.22 70.91 71.64 71.38 72.06 73.20 75.65 76.96 77.16 77.14 77.34 77.47 77.34 77.46 77.21 77.06 76.76 76.68 76.85 76.72 76.52 76.29 76.18 76.22 75.89 75.80 75.72 75.83 75.47 75.52 75.25 75.09
68.86 65.63 58.48 57.59 57.21 59.47 62.45 62.97 64.96 63.03 64.05 63.88 64.22 61.16 62.90 68.20 70.21 70.37 71.15 71.64 71.13 71.87 73.62 75.09 77.70 77.84 77.30 77.08 77.02 76.78 76.92 77.36 77.28 76.84 76.66 76.88 76.46 76.25 76.14 76.12 75.95 75.65 75.65 75.70 75.18 75.36 75.45 75.41 75.59
61.78 62.77 56.51 53.29 55.48 60.39 62.89 62.79 65.08 64.24 64.08 63.77 62.71 62.23 63.03 69.34 69.17 70.13 70.92 70.77 72.05 72.19 73.80 74.72 77.00 77.50 77.65 76.94 76.88 76.73 76.58 77.08 77.25 76.92 76.75 76.86 76.65 76.05 75.78 75.79 75.70 75.57 75.76 75.65 75.20 75.34 75.61 75.26 75.61
60.77 56.80 54.71 55.20 56.97 59.18 62.20 64.58 63.73 63.36 62.92 62.64 65.09 60.43 63.97 67.18 69.53 70.02 70.35 71.55 72.09 72.93 73.72 74.13 74.51 75.52 77.29 77.65 76.90 76.77 76.61 76.86 77.08 76.90 76.71 76.63 76.78 76.22 75.67 75.20 75.26 75.26 75.23 75.37 75.20 75.09 75.39 75.61 76.39
62.04 57.06 55.40 54.53 57.27 57.31 63.61 64.10 65.74 64.07 63.03 67.31 66.67 60.56 61.11 66.81 69.75 70.51 70.90 71.28 72.14 73.16 73.37 73.32 72.92 73.26 74.28 74.90 76.88 76.89 76.83 76.88 77.15 76.95 76.89 76.67 76.63 76.72 76.01 76.55 75.29 74.98 74.67 74.90 75.01 74.93 75.17 75.00 75.75
65.78 54.23 52.13 52.95 55.43 57.81 63.43 62.68 66.19 67.83 64.89 65.67 66.68 65.42 66.91 69.39 70.37 69.61 69.55 69.74 71.05 72.40 72.94 73.44 73.10 72.92 74.16 74.59 75.06 77.09 77.11 77.06 77.06 76.68 76.85 77.02 73.80 73.37 74.89 75.76 75.23 76.06 75.65 74.78 75.07 75.34 75.75 75.09 75.23
60.19 52.91 54.64 58.60 59.24 60.88 63.59 63.78 64.51 63.94 63.53 63.81 64.88 67.14 68.75 69.21 69.06 68.06 68.02 68.13 69.26 70.55 72.35 73.49 73.33 73.69 74.22 75.66 74.09 74.24 74.57 74.43 74.17 74.42 73.81 74.42 72.88 72.04 74.40 74.83 74.20 73.71 75.43 75.34 75.73 75.39 75.73 74.75 71.90
61.29 57.00 60.03 60.29 61.17 64.32 63.27 63.63 65.63 63.29 61.04 63.32 62.81 64.99 67.10 68.12 68.31 67.73 68.36 68.85 68.87 70.81 71.95 73.19 73.49 73.92 74.20 74.01 73.10 73.40 73.17 73.33 73.48 73.63 73.43 73.18 72.60 72.22 72.32 70.67 69.58 68.18 73.13 71.71 72.47 72.17 72.78 72.65 69.98
54.23 60.21 62.51 60.71 60.22 64.42 63.08 64.81 63.11 63.60 63.21 66.32 66.20 66.82 66.99 67.27 67.37 67.52 68.02 68.88 69.39 70.03 71.16 72.60 73.44 73.48 73.49 72.52 73.25 73.15 72.82 71.72 71.86 72.35 72.06 71.43 71.28 69.57 69.34 66.50 69.72 69.64 71.14 70.16 70.42 71.26 72.14 71.08 71.93
56.05 57.17 56.76 58.52 60.09 64.38 65.23 63.81 63.43 63.44 66.38 67.23 67.21 66.87 66.54 67.14 67.67 68.58 69.20 69.92 70.17 69.69 70.96 71.97 72.83 72.84 73.17 71.61 73.21 72.27 72.22 71.66 71.27 71.12 71.68 71.51 70.75 69.99 69.19 68.33 70.52 69.95 70.78 70.36 71.13 71.89 72.19 71.64 70.17
53.94 54.72 55.03 55.59 55.38 64.02 63.14 63.75 64.11 64.48 66.96 66.33 66.23 66.12 66.95 67.03 67.69 68.17 68.88 69.14 69.81 70.59 71.03 71.87 72.06 72.49 72.48 71.72 71.80 72.39 72.00 71.13 70.45 70.62 71.79 72.00 71.28 70.00 69.19 68.31 69.99 70.28 70.69 71.32 71.62 70.59 70.74 68.27 68.00
53.71 51.18 51.82 52.78 53.69 61.02 63.96 60.56 61.72 65.57 66.58 65.39 65.53 66.18 66.72 67.27 68.16 68.07 68.89 68.90 70.30 70.94 71.65 71.26 72.02 72.42 72.05 71.94 72.00 71.61 71.43 71.64 70.59 71.40 72.93 72.54 71.70 70.18 69.76 69.33 69.95 70.85 71.30 71.29 70.50 70.22 67.69 66.99 66.85
48.03 47.01 44.59 50.63 52.51 55.44 60.49 53.43 61.86 65.65 65.21 64.24 65.37 66.21 66.47 67.06 67.81 68.70 69.51 69.64 70.50 71.12 70.74 71.63 73.03 72.26 72.07 72.24 71.78 71.89 72.01 72.24 71.65 71.28 71.99 72.89 72.38 71.04 70.46 70.80 70.22 70.62 70.54 70.94 69.44 68.93 67.96 67.50 64.65
43.65 42.49 44.25 47.53 51.85 57.03 55.76 52.56 62.59 65.43 64.60 63.64 64.85 65.82 66.44 66.74 67.77 68.52 69.70 69.95 70.34 70.67 70.90 71.18 72.34 72.01 72.17 72.47 72.45 72.05 72.05 71.32 71.13 71.17 71.88 72.46 72.61 72.35 71.49 71.26 71.04 70.24 70.61 69.12 68.64 67.55 67.04 62.49 62.07
41.51 41.68 42.91 44.94 49.66 55.45 52.55 52.59 62.16 64.24 64.15 63.72 64.57 65.31 66.09 66.31 67.16 68.64 69.00 69.81 70.41 70.58 70.89 71.03 71.99 72.47 72.34 72.32 72.53 72.10 71.07 70.45 71.07 71.26 71.62 72.40 72.78 73.29 71.84 71.04 70.67 70.03 70.09 68.63 67.53 66.43 65.34 62.44 62.85
45.57 43.91 44.16 47.18 50.81 52.03 52.79 53.09 60.72 63.32 63.71 63.60 64.23 64.93 65.68 66.20 67.96 68.88 69.23 69.41 69.82 70.42 70.71 70.75 70.99 71.69 72.29 71.39 71.04 70.40 70.51 69.81 70.67 71.55 71.74 72.57 72.98 73.54 71.55 71.13 70.39 69.92 69.66 68.35 67.43 65.93 62.91 61.44 63.54
45.52 43.98 44.11 46.90 49.74 49.77 50.47 51.96 60.94 62.50 62.90 64.00 64.16 64.84 65.54 66.47 67.03 68.10 68.70 69.11 68.82 69.86 70.86 71.08 71.22 71.44 71.84 72.05 72.10 71.31 70.34 70.60 70.63 71.47 71.34 71.76 72.57 72.62 71.43 70.83 70.76 70.40 69.78 68.06 67.17 63.90 61.77 62.14 62.92
43.28 42.89 44.75 44.42 47.83 49.20 51.61 49.77 54.07 62.01 63.33 64.17 64.82 65.52 66.22 65.83 66.09 67.43 67.88 68.27 68.67 69.40 70.63 71.24 71.52 71.79 71.69 71.87 71.82 70.41 70.70 70.32 70.25 70.29 70.64 71.80 71.85 71.95 71.98 71.34 70.92 70.41 69.85 68.05 65.79 63.97 61.76 60.69 62.98
40.04 46.61 47.41 46.16 44.09 40.20 51.07 42.58 50.00 55.71 60.12 61.95 63.05 64.34 64.92 65.57 66.54 66.84 67.76 67.22 68.12 69.14 70.97 71.49 71.87 71.73 71.45 71.76 71.25 70.93 69.95 69.07 69.82 70.26 70.85 71.65 72.38 72.45 72.34 72.03 71.27 70.36 69.56 67.46 65.73 64.76 61.93 61.32 60.61
45.63 48.57 47.33 47.22 43.69 40.35 44.41 43.23 46.64 54.19 54.35 56.95 60.92 62.89 64.51 65.77 66.32 66.20 66.96 67.81 68.67 69.48 70.59 71.57 71.77 71.64 71.56 71.52 71.42 70.75 69.76 70.32 69.45 69.73 70.31 71.02 72.15 72.68 72.70 71.71 70.95 69.35 68.16 67.51 65.78 63.97 63.23 62.40 60.78
49.91 46.28 44.25 43.54 41.41 36.88 44.07 43.12 44.03 49.76 54.21 56.17 59.06 61.71 63.38 64.70 65.85 66.97 67.73 68.37 68.52 69.66 70.48 70.92 70.75 71.19 71.75 71.57 71.56 70.86 70.30 69.38 68.74 68.63 69.95 69.90 71.00 72.32 72.38 72.17 71.22 69.34 67.46 66.63 65.39 64.55 62.80 64.17 62.91
45.84 40.09 35.05 33.14 34.85 37.06 42.91 41.72 46.23 51.02 57.25 58.53 58.51 59.98 62.86 63.88 64.81 65.56 65.92 67.08 67.88 68.54 69.78 70.18 69.98 70.74 71.91 71.90 71.77 71.38 71.03 70.54 69.69 69.21 69.45 69.44 70.48 70.80 71.56 71.39 71.03 69.34 66.92 66.56 65.25 63.54 62.06 64.10 63.30
42.21 42.04 33.29 29.96 31.33 37.28 41.40 38.66 44.09 54.09 56.62 60.57 61.25 61.29 61.94 63.35 64.11 64.94 65.74 66.35 67.92 68.26 69.35 69.85 69.56 69.92 71.78 72.19 71.90 71.97 71.76 71.33 70.96 69.78 70.12 70.50 71.37 71.76 72.38 72.16 71.66 70.13 66.73 66.14 64.88 63.89 63.18 63.42 63.24
42.35 40.70 44.28 35.79 34.48 34.21 38.55 42.76 47.24 51.34 52.85 56.81 59.25 60.71 61.54 62.32 63.82 64.58 65.54 66.09 67.29 68.05 68.47 69.80 69.61 69.62 71.05 72.02 72.27 71.97 72.07 71.67 71.04 69.82 70.51 70.71 71.63 72.33 71.99 72.29 71.71 69.95 67.58 65.84 64.59 63.72 63.64 63.92 62.48
46.20 44.99 39.10 32.99 33.34 33.37 35.79 38.70 41.00 46.30 49.20 53.66 57.50 58.95 60.63 61.96 62.88 64.36 65.31 65.97 67.05 68.03 68.75 69.73 70.48 69.97 70.29 71.57 72.39 72.22 72.24 72.14 71.65 71.07 70.27 70.72 71.40 71.49 71.28 71.95 71.38 69.59 67.34 66.15 65.23 63.83 63.21 64.12 63.06
40.92 42.79 37.59 38.66 36.66 35.57 34.73 38.97 45.78 48.34 49.95 51.13 55.19 59.33 60.83 61.44 62.55 63.39 65.05 66.11 66.81 67.84 68.29 69.17 70.24 70.27 70.37 70.97 71.57 71.70 72.10 72.24 72.07 71.05 71.37 71.43 71.32 71.23 71.53 71.53 71.05 69.61 67.46 66.77 65.78 64.68 63.80 63.13 63.47
46.07 44.09 39.44 38.08 35.36 35.70 38.53 39.46 46.88 50.43 51.30 51.40 52.79 56.44 59.57 62.38 63.29 63.64 64.08 65.19 66.23 67.02 67.58 68.78 69.99 70.56 70.69 71.41 71.71 71.48 71.82 72.10 72.37 71.55 71.38 71.84 71.42 70.97 71.30 71.14 70.99 69.81 68.17 66.87 66.06 65.39 65.25 63.31 61.96
MSLP
1010.05 1010.33 1010.99 1011.64 1012.26 1011.67 1010.60 1009.47 1008.82 1008.12 1008.05 1008.21 1008.66 1009.37 1010.58 1011.56 1012.09 1013.40 1013.36 1013.69 1013.88 1014.24 1014.28 1014.49 1014.58 1014.70 1014.91 1015.18 1015.37 1015.45 1015.53 1015.63 1015.83 1016.06 1016.24 1016.43 1016.60 1016.75 1016.80 1016.84 1016.95 1017.03 1017.10 1017.13 1017.05 1017.05 1017.02 1017.14 1017.39
1010.14 1010.59 1011.17 1011.47 1011.77 1011.09 1010.03 1008.97 1008.31 1008.08 1008.20 1008.38 1008.99 1009.59 1010.49 1011.68 1012.18 1013.01 1013.50 1013.67 1013.71 1014.16 1014.48 1014.70 1014.76 1015.07 1015.20 1015.43 1015.58 1015.63 1015.72 1015.88 1016.11 1016.28 1016.46 1016.67 1016.84 1016.92 1017.00 1017.10 1017.13 1017.19 1017.21 1017.16 1017.07 1017.11 1017.22 1017.30 1017.42
1010.60 1010.62 1010.91 1011.35 1011.32 1010.68 1009.71 1008.83 1008.32 1008.15 1008.11 1008.19 1009.21 1009.92 1010.72 1011.82 1012.47 1013.00 1013.09 1013.60 1013.85 1014.31 1014.67 1014.87 1015.09 1015.28 1015.46 1015.62 1015.79 1015.86 1015.92 1016.15 1016.36 1016.53 1016.77 1016.96 1017.06 1017.10 1017.14 1017.20 1017.22 1017.25 1017.20 1017.19 1017.20 1017.25 1017.31 1017.43 1017.60
1010.54 1011.19 1011.55 1011.11 1010.32 1008.94 1008.09 1007.83 1007.79 1008.03 1008.10 1008.50 1009.40 1010.60 1011.33 1011.65 1012.34 1012.63 1013.31 1013.69 1014.09 1014.55 1014.88 1014.95 1015.21 1015.42 1015.64 1015.85 1015.97 1016.07 1016.19 1016.45 1016.60 1016.86 1016.97 1017.09 1017.12 1017.22 1017.28 1017.29 1017.33 1017.30 1017.31 1017.37 1017.36 1017.41 1017.55 1017.59 1017.48
1010.22 1010.89 1011.27 1010.26 1008.98 1007.82 1007.55 1007.56 1007.58 1007.73 1008.21 1008.88 1009.44 1011.07 1011.91 1012.22 1012.11 1012.97 1013.44 1013.88 1014.28 1014.78 1014.99 1015.12 1015.30 1015.53 1015.78 1015.95 1016.17 1016.33 1016.52 1016.66 1016.78 1016.96 1017.11 1017.18 1017.30 1017.40 1017.37 1017.34 1017.39 1017.41 1017.35 1017.34 1017.43 1017.53 1017.76 1017.78 1017.59
1010.53 1010.95 1010.44 1009.57 1008.30 1007.71 1007.27 1007.62 1007.88 1007.84 1008.37 1009.39 1010.14 1010.90 1012.27 1012.27 1012.60 1013.07 1013.51 1014.01 1014.25 1014.80 1015.07 1015.31 1015.47 1015.64 1015.89 1016.09 1016.34 1016.53 1016.67 1016.74 1016.89 1017.07 1017.25 1017.37 1017.51 1017.58 1017.53 1017.50 1017.50 1017.44 1017.34 1017.41 1017.58 1017.71 1017.87 1017.76 1017.73
1010.62 1010.87 1009.87 1008.66 1007.87 1007.54 1007.04 1007.46 1007.75 1007.80 1008.57 1009.32 1009.80 1011.11 1012.27 1012.70 1012.84 1013.19 1013.63 1014.13 1014.49 1014.77 1015.13 1015.35 1015.57 1015.76 1015.98 1016.21 1016.41 1016.58 1016.75 1016.82 1017.02 1017.26 1017.38 1017.47 1017.59 1017.64 1017.60 1017.61 1017.58 1017.54 1017.39 1017.44 1017.61 1017.80 1017.81 1017.82 1017.83
1010.30 1010.35 1009.20 1008.00 1007.24 1007.05 1006.78 1007.25 1007.41 1007.91 1008.41 1009.08 1009.73 1010.62 1011.65 1012.19 1012.61 1013.27 1013.89 1014.38 1014.72 1015.03 1015.14 1015.41 1015.61 1015.83 1016.07 1016.27 1016.34 1016.59 1016.76 1016.91 1017.12 1017.24 1017.34 1017.45 1017.53 1017.59 1017.59 1017.65 1017.69 1017.72 1017.58 1017.47 1017.66 1017.79 1017.86 1017.92 1017.88
1009.73 1009.73 1008.27 1007.39 1006.69 1006.35 1006.42 1007.21 1007.53 1007.64 1008.30 1008.69 1009.13 1009.61 1010.59 1011.64 1012.45 1013.39 1014.09 1014.70 1015.01 1015.23 1015.34 1015.39 1015.62 1015.89 1016.14 1016.31 1016.32 1016.54 1016.71 1016.93 1017.07 1017.17 1017.31 1017.40 1017.61 1017.71 1017.65 1017.67 1017.76 1017.79 1017.75 1017.69 1017.67 1017.78 1017.83 1017.74 1017.84
1009.12 1008.60 1006.76 1005.58 1005.28 1005.57 1005.90 1006.57 1006.96 1007.75 1008.33 1008.91 1009.15 1009.76 1010.79 1011.58 1012.35 1013.11 1013.84 1014.51 1014.87 1015.10 1015.35 1015.49 1015.57 1015.80 1016.16 1016.17 1016.32 1016.61 1016.71 1016.87 1016.98 1017.19 1017.39 1017.54 1017.67 1017.75 1017.68 1017.73 1017.81 1017.86 1017.79 1017.72 1017.79 1017.88 1017.88 1017.88 1017.98
1007.47 1006.75 1005.24 1004.35 1004.82 1004.70 1005.40 1006.57 1007.21 1007.47 1008.13 1008.11 1008.52 1009.53 1010.59 1011.45 1012.19 1012.89 1013.62 1014.09 1014.35 1014.71 1015.17 1015.39 1015.56 1015.75 1016.08 1016.00 1016.38 1016.67 1016.78 1016.94 1017.07 1017.23 1017.45 1017.62 1017.75 1017.81 1017.90 1018.04 1018.13 1018.11 1017.99 1017.95 1017.91 1017.96 1017.97 1017.84 1017.96
1006.45 1005.15 1005.07 1003.68 1003.85 1004.60 1004.66 1005.82 1006.48 1006.77 1006.17 1007.02 1007.83 1008.37 1009.89 1010.98 1011.60 1012.28 1013.07 1013.71 1014.15 1014.64 1014.84 1015.12 1015.22 1015.51 1015.90 1016.03 1016.22 1016.52 1016.76 1017.00 1017.05 1017.15 1017.47 1017.75 1017.98 1018.10 1018.11 1018.28 1018.12 1018.12 1018.07 1017.99 1018.10 1018.12 1018.00 1017.93 1017.90
1005.82 1004.57 1004.29 1003.55 1003.43 1003.31 1004.57 1004.91 1005.37 1006.09 1006.16 1007.05 1008.58 1009.29 1009.79 1010.53 1011.22 1011.99 1012.43 1013.13 1013.70 1014.25 1014.55 1014.77 1015.06 1015.41 1015.66 1015.97 1016.03 1016.38 1016.60 1016.81 1016.85 1017.13 1017.37 1017.60 1017.89 1018.08 1018.18 1018.18 1018.09 1018.17 1018.14 1018.17 1018.24 1018.17 1018.07 1017.91 1017.85
1004.58 1004.38 1003.71 1003.24 1002.72 1003.16 1004.34 1005.24 1005.62 1006.54 1006.69 1007.66 1008.08 1009.09 1009.87 1010.13 1010.68 1011.49 1011.97 1012.51 1013.09 1013.62 1013.99 1014.40 1014.77 1015.03 1015.41 1015.79 1015.88 1016.03 1016.37 1016.55 1016.84 1017.06 1017.12 1017.38 1017.67 1017.93 1018.10 1018.22 1018.16 1018.08 1017.96 1017.97 1018.02 1018.29 1018.02 1018.13 1018.14
1003.84 1003.70 1003.16 1002.71 1002.24 1003.09 1003.62 1004.95 1004.64 1005.58 1006.60 1007.42 1008.12 1008.76 1009.53 1009.84 1010.40 1010.79 1011.19 1011.73 1012.20 1012.92 1013.42 1013.96 1014.28 1014.59 1015.17 1015.40 1015.52 1015.81 1015.94 1016.25 1016.50 1016.65 1016.77 1016.95 1017.34 1017.66 1017.87 1018.04 1017.98 1017.73 1017.84 1018.00 1018.11 1018.21 1018.40 1018.28 1018.05
1004.10 1003.88 1003.44 1002.52 1002.24 1002.05 1002.98 1004.03 1004.49 1005.44 1006.54 1007.18 1007.86 1008.40 1009.04 1009.57 1009.74 1010.11 1010.55 1011.06 1011.68 1012.31 1012.91 1013.33 1013.74 1014.26 1014.70 1015.07 1015.27 1015.34 1015.59 1015.80 1016.03 1016.17 1016.44 1016.65 1017.04 1017.39 1017.69 1017.77 1017.81 1017.78 1017.83 1017.99 1018.20 1018.48 1018.54 1018.54 1018.53
1004.87 1004.31 1003.76 1002.63 1001.88 1001.89 1002.53 1003.45 1004.19 1005.16 1006.17 1006.66 1007.43 1007.91 1008.52 1009.26 1009.70 1009.71 1009.97 1010.47 1011.04 1011.62 1012.28 1012.92 1013.36 1013.85 1014.27 1014.67 1014.85 1015.02 1015.18 1015.57 1015.60 1015.81 1016.10 1016.40 1016.73 1017.07 1017.40 1017.59 1017.60 1017.67 1017.78 1018.00 1018.25 1018.55 1018.73 1018.91 1018.85
1005.03 1004.42 1003.77 1002.99 1002.24 1002.32 1002.76 1003.27 1003.96 1004.95 1005.28 1005.80 1006.71 1007.52 1008.08 1008.59 1008.41 1008.80 1009.32 1009.86 1010.48 1011.07 1011.70 1012.38 1012.92 1013.41 1013.96 1014.30 1014.64 1014.93 1015.14 1015.25 1015.26 1015.45 1015.75 1016.02 1016.40 1016.72 1017.12 1017.19 1017.34 1017.38 1017.67 1018.02 1018.22 1018.51 1018.79 1019.00 1019.07
1004.54 1004.25 1003.77 1002.40 1002.61 1002.67 1002.95 1003.44 1003.95 1004.39 1005.67 1005.88 1006.34 1006.87 1007.27 1007.40 1007.46 1008.32 1008.79 1009.24 1009.88 1010.62 1011.24 1011.69 1012.43 1012.93 1013.58 1014.16 1014.59 1015.01 1015.19 1015.47 1015.51 1015.41 1015.50 1015.73 1015.98 1016.35 1016.76 1016.96 1017.21 1017.31 1017.61 1017.91 1018.23 1018.54 1018.85 1019.21 1019.29
1004.37 1004.22 1003.53 1002.41 1002.76 1002.86 1003.09 1003.29 1003.16 1003.81 1003.75 1003.67 1004.61 1005.65 1006.05 1006.57 1007.37 1007.66 1008.21 1008.68 1009.00 1009.41 1010.22 1011.02 1011.51 1012.23 1012.76 1013.30 1013.73 1014.17 1014.56 1014.78 1014.93 1015.11 1015.36 1015.55 1015.80 1015.99 1016.39 1016.77 1017.14 1017.32 1017.63 1017.98 1018.35 1018.63 1019.18 1019.42 1019.40
1003.79 1003.68 1003.09 1003.08 1002.79 1002.44 1002.82 1003.18 1003.45 1003.90 1004.13 1004.60 1004.67 1004.47 1005.00 1005.38 1005.87 1006.66 1006.96 1007.49 1008.14 1008.90 1009.41 1009.90 1010.37 1011.21 1011.98 1012.61 1013.27 1013.92 1014.26 1014.56 1014.83 1015.02 1015.25 1015.42 1015.61 1015.91 1016.05 1016.38 1016.68 1017.14 1017.47 1017.89 1018.31 1018.62 1018.85 1019.32 1019.58
1003.19 1002.80 1003.06 1003.23 1003.57 1003.63 1002.96 1003.72 1003.47 1003.39 1003.84 1003.75 1004.02 1004.22 1004.33 1004.62 1005.06 1005.52 1006.01 1006.38 1006.78 1007.42 1008.34 1009.13 1009.78 1010.50 1011.30 1012.08 1012.60 1013.03 1013.40 1013.97 1014.18 1014.39 1014.73 1015.11 1015.22 1015.54 1015.78 1015.98 1016.34 1016.77 1017.22 1017.78 1017.95 1018.29 1018.67 1019.16 1019.57
1002.15 1002.68 1003.06 1003.38 1003.83 1004.03 1003.55 1004.11 1002.74 1002.72 1003.28 1003.18 1002.87 1002.92 1003.23 1003.30 1003.80 1004.16 1004.62 1005.04 1005.52 1006.41 1007.32 1008.18 1008.98 1009.64 1010.39 1011.26 1011.72 1012.35 1012.89 1013.25 1013.59 1014.03 1014.40 1014.74 1014.95 1015.04 1015.24 1015.63 1016.01 1016.69 1017.20 1017.38 1017.75 1018.23 1018.59 1018.83 1019.12
1001.94 1002.74 1003.36 1003.78 1004.35 1004.26 1003.18 1003.68 1002.17 1002.03 1001.57 1001.41 1001.45 1001.59 1001.48 1002.01 1002.58 1003.01 1003.18 1004.25 1004.92 1005.76 1006.69 1007.38 1008.13 1008.75 1009.47 1010.21 1010.84 1011.39 1011.99 1012.57 1013.35 1013.84 1014.28 1014.42 1014.59 1014.83 1014.89 1015.24 1015.68 1016.15 1016.79 1017.09 1017.46 1017.91 1018.41 1018.62 1018.85
1001.72 1003.14 1004.59 1004.74 1004.78 1002.86 1002.66 1002.78 1000.90 999.70 999.42 999.11 999.31 999.53 999.50 1000.39 1001.14 1001.66 1002.54 1003.25 1004.12 1004.99 1005.75 1006.65 1007.48 1008.17 1008.76 1009.41 1009.93 1010.51 1011.13 1011.82 1012.36 1013.02 1013.60 1013.98 1014.31 1014.43 1014.66 1015.03 1015.48 1015.89 1016.26 1016.66 1017.12 1017.72 1018.15 1018.46 1018.74
1001.20 1002.20 1003.55 1004.11 1004.10 1003.03 1002.29 1000.79 998.80 998.22 997.71 997.79 997.77 997.77 998.40 999.26 999.68 1000.23 1000.71 1001.70 1002.43 1003.31 1004.59 1005.54 1006.48 1007.25 1007.99 1008.52 1009.07 1009.71 1010.33 1010.95 1011.63 1012.15 1012.62 1013.10 1013.46 1013.69 1014.04 1014.51 1014.86 1015.22 1015.80 1016.40 1016.90 1017.46 1017.90 1018.23 1018.48
1000.42 1001.27 1001.54 1003.35 1003.84 1003.30 1001.43 999.46 997.84 997.36 997.26 997.33 997.46 997.70 997.67 997.91 998.27 998.76 999.40 1000.26 1001.06 1002.29 1002.98 1004.05 1005.00 1005.88 1006.66 1007.34 1008.16 1008.99 1009.64 1010.23 1010.83 1011.42 1011.79 1012.27 1012.69 1013.07 1013.52 1013.90 1014.39 1014.90 1015.39 1016.06 1016.70 1017.21 1017.65 1017.96 1018.23
998.36 999.86 1001.52 1002.78 1003.07 1002.66 1000.60 998.94 997.64 997.18 997.18 996.79 996.78 996.98 996.99 997.05 997.17 997.56 998.17 998.80 999.78 1000.57 1001.49 1002.66 1003.66 1004.32 1004.91 1005.93 1006.85 1007.76 1008.60 1009.38 1009.92 1010.63 1011.13 1011.46 1011.96 1012.47 1012.96 1013.44 1013.89 1014.55 1015.09 1015.69 1016.28 1016.72 1017.17 1017.62 1017.96
998.22 998.75 999.91 1000.81 1001.14 1000.74 999.76 997.48 996.63 996.66 996.35 996.41 996.07 995.97 995.95 996.22 996.23 996.09 996.66 997.41 998.42 999.76 1000.79 1001.78 1002.98 1003.46 1004.37 1005.27 1006.12 1006.92 1007.59 1008.45 1009.25 1009.74 1010.22 1010.49 1011.03 1011.70 1012.32 1012.81 1013.40 1014.07 1014.64 1015.21 1015.77 1016.24 1016.73 1017.16 1017.46
996.79 997.48 998.77 999.55 999.42 999.30 998.64 996.62 995.19 994.78 995.11 995.58 995.26 995.38 995.01 994.77 994.60 995.02 995.48 996.21 997.63 998.57 999.82 1000.63 1001.48 1002.50 1002.90 1004.02 1005.00 1005.62 1006.37 1007.22 1008.20 1008.77 1009.17 1009.70 1010.22 1010.94 1011.52 1012.16 1012.83 1013.43 1014.00 1014.55 1015.16 1015.76 1016.22 1016.74 1017.01
Wind_Speed
17 11 4 1 1 1 4 1 4 5 2 3 4 6 9 6 2 3 4 6 10 6 6 10 14 17 17 16 15 16 16 17 16 16 15 15 13 11 11 11 10 10 9 8 9 9 8 8 9
11 10 2 3 1 3 3 4 3 1 6 10 9 7 6 5 5 10 7 7 11 9 5 7 14 16 17 15 15 15 16 16 15 15 14 13 12 10 10 9 9 8 7 7 7 7 7 7 8
6 3 3 3 1 1 4 2 5 6 8 4 6 7 4 4 11 11 9 13 12 8 6 7 15 16 17 16 15 14 15 15 15 14 13 12 11 10 9 8 7 6 5 5 6 5 5 6 7
4 2 2 1 2 6 8 5 11 7 2 9 12 9 5 9 11 7 14 13 11 9 7 13 17 17 17 15 15 14 14 14 13 12 12 11 10 9 8 7 6 5 4 4 5 4 5 6 8
2 1 2 4 4 3 6 1 8 8 3 7 4 5 7 7 14 17 14 13 12 8 7 10 16 16 16 15 15 14 12 12 12 11 11 10 8 7 7 6 4 3 2 3 3 4 6 7 9
4 2 1 3 2 4 6 3 5 2 9 11 12 11 3 13 18 14 14 12 10 10 7 9 15 17 16 16 15 13 12 11 10 9 9 8 7 6 5 4 3 3 3 2 4 5 8 6 9
1 2 3 4 4 4 5 5 1 10 11 9 13 5 5 13 13 14 12 11 11 10 8 8 9 13 17 15 15 13 12 11 9 8 8 7 7 6 4 3 2 3 2 3 3 4 5 6 8
3 2 3 3 7 3 5 7 7 10 9 14 12 7 11 17 16 13 11 10 10 10 9 7 6 7 7 8 16 14 12 11 10 9 8 7 7 6 5 4 1 0 1 2 2 2 4 3 4
2 2 4 5 6 4 6 8 10 5 13 6 6 8 16 20 18 14 11 9 9 9 8 7 6 6 6 6 8 13 14 12 12 10 9 6 1 2 4 4 3 3 2 2 3 4 4 3 3
5 2 6 6 5 11 17 15 17 7 15 2 7 15 20 20 18 17 14 12 12 12 10 9 7 8 7 7 5 5 5 4 4 4 4 2 3 3 4 4 1 2 1 1 3 4 4 5 2
6 7 7 15 4 17 20 17 11 15 11 9 25 24 23 22 18 17 14 15 15 13 10 10 9 8 8 6 3 3 2 3 3 5 4 3 2 1 1 1 2 2 3 1 2 3 1 1 1
7 12 12 17 13 17 23 17 7 20 9 19 27 27 26 20 20 19 17 15 13 13 13 12 11 10 8 3 4 4 4 3 3 4 4 3 2 3 2 1 3 2 2 2 3 3 3 3 3
14 14 6 17 9 19 18 22 16 24 9 21 20 22 24 20 19 17 17 15 13 14 13 14 12 10 9 6 4 4 5 4 5 3 4 4 4 4 3 3 2 2 1 1 2 3 2 2 2
7 11 7 8 13 15 18 14 10 18 18 20 24 23 20 22 21 16 17 17 15 15 15 14 13 12 10 8 6 6 4 5 4 3 5 6 4 4 4 4 4 4 3 2 2 2 1 2 3
4 4 4 6 7 13 22 10 17 16 21 24 24 22 21 20 18 19 18 17 18 15 15 15 14 13 12 12 8 6 5 5 4 6 7 8 6 5 5 4 4 2 2 2 1 1 1 1 2
3 2 2 1 3 5 20 18 13 23 24 23 23 21 21 20 20 19 19 18 17 16 15 16 14 14 13 10 6 7 5 5 6 4 4 7 7 6 5 4 3 2 2 3 2 2 1 1 3
4 4 5 9 6 6 7 4 11 24 22 22 22 21 20 18 18 18 19 18 17 16 16 15 14 14 14 10 6 7 6 5 7 4 5 7 7 7 5 4 4 5 4 3 2 1 1 2 2
5 4 4 6 5 8 2 2 19 22 23 24 22 20 19 19 23 19 18 17 16 17 16 15 14 14 13 8 6 3 3 4 3 4 4 6 7 7 6 4 4 4 3 2 1 2 1 1 1
3 3 5 6 3 2 9 8 21 24 17 19 19 20 20 22 22 18 18 17 15 15 16 17 16 14 11 7 6 4 6 3 2 3 6 6 6 7 6 4 4 3 4 4 4 2 1 1 1
7 7 12 15 9 8 7 11 23 25 28 28 24 23 23 21 19 20 18 18 19 19 19 18 18 15 14 10 9 6 4 3 3 4 5 5 6 7 6 6 5 5 3 4 3 2 1 1 1
6 10 11 10 4 2 4 3 12 21 10 14 18 22 23 23 24 22 22 22 19 20 21 20 21 19 15 15 8 2 3 2 3 2 3 5 6 6 7 7 5 5 4 4 4 4 5 3 1
9 7 9 5 4 4 3 5 5 14 20 17 18 21 21 23 21 20 23 21 22 23 21 20 19 18 16 15 13 15 9 9 5 5 4 6 8 8 8 7 6 6 4 5 5 4 3 4 3
11 4 8 3 5 0 5 1 8 16 17 18 21 22 22 23 23 23 24 25 23 21 21 20 20 19 18 16 16 12 10 7 3 3 6 6 6 7 8 7 7 6 4 5 6 5 4 3 3
4 2 5 3 3 6 17 9 11 8 19 21 20 23 25 24 23 23 23 21 20 18 18 19 20 20 19 18 19 17 16 9 6 4 6 5 4 5 7 8 7 6 6 6 5 5 6 5 3
6 8 3 4 5 11 9 6 14 9 19 28 27 27 28 25 24 24 22 22 20 21 21 18 19 20 20 20 19 18 16 14 13 10 7 6 4 4 6 8 7 6 6 6 6 6 5 5 4
8 12 8 9 5 8 6 10 9 17 12 21 26 26 22 23 23 25 26 24 24 24 22 21 21 20 20 20 20 17 16 11 10 10 8 7 7 7 8 10 9 8 8 6 6 4 4 5 5
8 11 13 2 3 2 6 8 5 8 10 10 17 19 22 22 24 27 26 23 24 22 24 24 23 23 22 22 18 16 15 15 12 11 11 8 8 6 8 11 10 9 9 8 7 5 6 6 5
16 10 4 2 12 14 6 7 7 6 12 9 11 13 17 19 21 23 22 24 22 23 23 23 24 26 24 23 20 16 16 15 12 11 12 10 9 8 9 11 10 9 9 9 9 6 5 6 4
4 13 4 7 8 10 9 11 9 11 10 12 12 14 17 16 20 22 21 22 22 19 20 22 21 23 22 20 18 17 16 15 13 13 12 13 11 11 11 12 12 11 10 9 9 7 7 8 6
19 16 9 7 13 6 7 13 4 16 15 11 11 11 14 21 24 21 23 20 19 20 19 22 22 22 23 20 19 19 17 16 15 15 14 13 13 12 12 12 11 11 11 11 11 11 9 9 8
Wind_Direction
159 145 140 151 338 354 260 212 331 101 68 28 86 130 112 51 21 145 134 148 131 130 148 145 144 134 122 120 122 117 115 110 108 112 113 114 111 108 107 106 101 97 95 94 94 88 88 89 90
151 135 90 114 51 18 295 325 16 331 107 113 89 100 64 76 73 117 122 157 136 141 130 142 143 133 127 126 122 121 117 115 118 117 118 116 117 115 106 103 103 101 100 97 88 91 88 87 92
106 22 98 83 102 209 268 261 103 121 149 94 114 55 67 91 113 146 133 145 136 136 129 151 142 135 133 129 127 124 122 124 122 120 121 121 120 116 118 119 121 116 106 92 78 72 76 81 84
150 60 72 31 227 239 205 186 123 156 108 64 109 76 80 111 142 138 142 143 137 143 141 152 149 141 140 137 135 132 126 127 120 124 131 130 131 131 134 132 130 120 91 62 64 65 56 60 78
73 70 106 250 220 246 260 204 150 149 120 115 101 90 105 156 113 138 144 143 146 143 148 152 154 149 150 147 144 143 141 131 133 140 140 142 141 138 139 146 136 108 68 56 68 65 65 55 70
45 40 302 254 260 154 262 345 161 160 107 107 104 109 133 129 137 149 151 149 149 150 153 159 159 158 158 156 155 156 155 147 150 154 148 152 155 148 149 161 141 86 43 41 56 63 71 86 95
139 156 239 240 122 138 214 136 265 136 133 129 142 101 124 142 154 151 150 144 150 155 152 161 165 168 166 166 167 170 168 165 166 166 161 165 175 175 189 184 148 95 44 24 48 61 78 87 103
183 164 240 278 149 210 152 152 180 142 141 127 140 160 165 167 155 149 146 145 150 159 159 159 165 171 164 172 179 181 181 180 183 187 186 186 193 193 204 212 261 59 331 19 20 26 53 32 74
158 268 270 196 168 208 162 175 150 148 139 172 191 149 153 159 147 149 144 145 153 163 166 164 166 164 158 168 191 188 192 192 197 203 202 207 210 256 263 235 241 281 252 342 330 348 352 31 59
186 217 240 182 147 172 164 178 170 143 158 84 98 125 151 157 155 158 161 159 169 171 174 173 170 170 160 180 197 172 198 188 200 204 214 183 213 234 236 236 285 324 252 199 320 322 350 29 32
202 226 261 276 232 164 168 181 184 153 179 185 154 153 161 160 166 165 166 170 177 176 176 179 177 172 171 188 168 175 193 192 205 213 201 198 202 268 59 7 323 317 304 7 344 349 301 319 1
260 237 240 276 306 164 179 175 188 179 194 166 163 160 162 168 171 171 171 175 173 178 183 182 182 178 181 178 183 183 190 193 212 214 193 187 187 207 203 255 254 229 252 272 303 312 311 54 19
221 249 226 255 253 185 173 186 182 202 139 153 157 163 171 171 174 177 173 174 172 180 185 188 183 184 186 189 192 184 200 199 214 192 197 187 203 213 213 230 212 231 227 316 307 293 323 12 337
205 222 240 247 267 170 172 190 154 204 149 158 162 172 178 178 179 175 176 177 178 182 187 186 187 188 186 197 193 202 194 204 204 182 214 200 198 203 199 209 225 216 191 240 253 255 343 0 304
258 280 309 232 234 168 175 196 204 172 161 165 174 174 182 189 181 182 183 181 181 185 184 184 188 189 192 199 201 196 201 192 206 208 196 207 190 197 201 206 234 216 206 202 142 73 343 343 28
266 92 334 337 256 209 161 203 207 160 164 174 177 177 185 193 190 190 187 186 182 182 186 187 189 189 196 201 193 203 197 204 211 208 187 191 180 193 196 200 212 191 172 167 184 168 330 50 35
344 223 224 313 218 151 172 162 167 167 175 176 181 182 188 191 201 198 193 188 187 185 187 188 190 190 196 202 195 204 196 202 218 191 195 187 177 181 181 201 210 177 177 162 163 116 121 50 360
203 214 229 229 296 176 161 209 163 177 178 182 183 187 189 197 204 201 194 189 189 189 186 185 188 189 193 197 195 196 179 218 195 192 194 181 179 183 184 195 197 162 147 118 90 141 118 142 234
184 250 254 252 261 94 226 173 179 185 193 186 188 190 195 203 203 201 199 195 186 189 187 186 189 191 184 188 192 199 197 184 208 209 200 189 177 185 187 191 183 177 178 189 182 134 114 347 77
220 229 259 296 175 183 203 213 194 182 198 191 186 193 199 206 198 204 200 199 196 188 190 189 191 189 192 191 197 198 172 197 166 182 195 190 195 184 175 189 193 189 169 176 189 153 103 2 48
219 207 241 232 359 324 101 337 164 208 214 199 204 200 200 200 197 203 200 198 197 196 193 193 191 191 192 195 187 115 98 74 142 175 186 195 201 206 186 192 187 182 183 186 178 183 158 159 40
235 199 251 265 56 245 132 270 203 188 214 203 207 207 204 207 203 199 206 200 194 197 195 196 192 190 193 189 193 199 196 199 206 178 167 187 202 204 201 190 181 185 187 180 187 173 149 124 174
243 198 224 183 203 114 229 235 253 172 208 218 209 212 210 208 203 199 200 203 203 190 193 194 193 191 189 191 198 197 199 198 171 162 175 189 200 202 196 185 175 179 180 191 174 162 155 174 154
166 283 340 49 142 245 248 166 254 180 203 211 214 212 211 208 206 210 205 200 201 196 194 191 188 195 191 192 199 198 198 180 166 180 200 204 193 202 198 184 181 177 184 183 181 175 166 190 158
127 115 273 295 194 240 205 202 228 215 207 204 204 210 210 206 204 208 205 203 198 194 192 190 190 194 195 195 198 198 198 189 188 191 197 187 188 192 193 179 183 181 188 178 162 168 175 188 175
192 180 166 198 192 243 170 221 239 213 215 214 212 213 208 205 206 207 207 202 202 194 189 187 188 195 194 195 199 199 197 192 196 194 193 199 197 203 185 190 189 181 175 176 171 173 178 182 191
192 193 204 142 206 22 228 275 286 202 238 206 215 218 209 206 207 210 208 204 202 198 189 189 189 195 195 196 195 195 195 194 193 193 197 196 195 197 184 189 188 183 175 174 172 179 188 181 191
193 165 187 350 221 244 248 238 228 193 228 237 223 201 209 212 210 212 208 205 203 199 195 189 192 195 195 194 194 193 192 196 191 189 197 193 194 192 176 189 188 179 177 174 175 184 184 184 188
192 211 185 157 177 224 246 258 179 204 214 202 223 212 213 213 219 214 208 207 201 195 190 193 198 196 201 197 195 194 195 194 192 195 199 195 189 190 188 192 188 183 182 181 183 192 181 195 192
206 210 165 189 226 261 240 235 308 190 203 202 224 210 221 222 221 212 207 196 190 192 188 193 194 196 199 195 195 194 195 190 192 202 202 193 189 186 187 187 188 184 187 186 190 192 192 198 202